Regional Weather Roundup
Issued by NWS

Home | Current Version | Previous Version | Graphics & Text | Print | Product List | Glossary On
Versions: 1 2 3 4 5 6 7 8 9 10 11 12 13 14 15 16 17 18 19 20 21 22 23 24 25 26 27 28 29 30 31 32 33 34 35 36 37 38 39 40 41 42 43 44 45 46 47 48 49 50
000
ASUS45 KCYS 031710
RWRWY

WYOMING REGIONAL WEATHER ROUNDUP
NATIONAL WEATHER SERVICE CHEYENNE WY
1100 AM MDT TUE MAY 03 2016

NOTE:  "FAIR" INDICATES FEW OR NO CLOUDS BELOW 12,000 FEET
WITH NO SIGNIFICANT WEATHER AND/OR OBSTRUCTIONS TO VISIBILITY.

WYZ001-031800-
YELLOWSTONE NATIONAL PARK

CITY           SKY/WX    TMP DP  RH WIND       PRES   REMARKS
LK YELLOWSTONE   N/A     46  23  40 VRB3      30.37F
W YELLOWSTONE  NOT AVBL

$$
WYZ002>013-054>058-071-098>099-031800-
NORTHERN WYOMING

CITY           SKY/WX    TMP DP  RH WIND       PRES   REMARKS
JACKSON        FAIR      54  25  32 CALM      30.31F
CODY           FAIR      63  32  31 NE3       30.21F
GREYBULL       FAIR      63  31  30 VRB3      30.20S
WORLAND        FAIR      61  34  36 CALM      30.21S
SHERIDAN       FAIR      68  34  28 CALM      30.18S
BUFFALO        FAIR      65  35  33 MISG      30.23R
GILLETTE       FAIR      65  41  41 N14       30.18R
HULETT         FAIR      64  36  34 NE9       30.17S
NEWCASTLE      FAIR      63  34  34 NW10G22   30.16S

$$
WYZ014>020-022>026-101>103-031800-
CENTRAL WYOMING

CITY           SKY/WX    TMP DP  RH WIND       PRES   REMARKS
BIG PINEY      FAIR      56  19  23 CALM      30.32S
PINEDALE       FAIR      54  23  30 CALM      30.32S
DUBOIS         FAIR      59  18  20 NE5       30.28F
LANDER         FAIR      61  29  29 CALM      30.24S
RIVERTON       FAIR      57  38  48 VRB5      30.27R
CASPER         FAIR      58  31  35 W8        30.25S
DOUGLAS        PTSUNNY   63  38  39 W18       30.22S

$$
WYZ021-027>030-104>119-031800-
SOUTHERN WYOMING

CITY           SKY/WX    TMP DP  RH WIND       PRES   REMARKS
EVANSTON       FAIR      55  26  32 CALM      30.33R
KEMMERER         N/A     55  19  24 SW5       30.33S
FORT BRIDGER   SUNNY     54  21  28 CALM      30.36S
ROCK SPRINGS   FAIR      53  25  33 W8        30.32S
DIXON          FAIR      55  29  37 W5        30.32S
RAWLINS        FAIR      53  30  41 CALM      30.30S
SARATOGA       FAIR      52  28  40 W6        30.32S
LARAMIE        FAIR      46  33  60 VRB7      30.30R
CHEYENNE       FAIR      55  31  39 MISG      30.25R
TORRINGTON     FAIR      63  34  33 NW20G28   30.16R
PINE BLUFFS    FAIR      59  36  41 N23       30.21R

$$



USA.gov is the U.S. government's official web portal to all federal, state and local government web resources and services.